timestamp,wind_dir_avg,wind_spd_max_dir,wind_spd_avg,wind_spd_gust,battery_voltage,lat,long
2019-02-14 00:00:00+00:00,149.0,142.0,4.08,4.72,,47.59359,-54.27349
2019-02-14 00:10:00+00:00,132.0,133.0,3.96,4.38,,47.59359,-54.27349
2019-02-14 00:20:00+00:00,163.0,164.0,6.58,7.45,,47.59359,-54.27349
2019-02-14 00:30:00+00:00,150.0,151.0,6.79,7.54,,47.59359,-54.27349
2019-02-14 00:40:00+00:00,155.0,165.0,5.91,6.68,,47.59359,-54.27349
2019-02-14 00:50:00+00:00,145.0,146.0,5.11,5.75,,47.59359,-54.27349
2019-02-14 01:00:00+00:00,147.0,151.0,5.14,6.04,,47.59359,-54.27349
2019-02-14 01:10:00+00:00,141.0,146.0,5.12,6.19,,47.59359,-54.27349
2019-02-14 01:20:00+00:00,147.0,147.0,6.26,7.78,,47.59359,-54.27349
2019-02-14 01:30:00+00:00,134.0,140.0,6.42,7.21,,47.59359,-54.27349
2019-02-14 01:40:00+00:00,140.0,136.0,5.13,5.61,,47.59359,-54.27349
2019-02-14 01:50:00+00:00,138.0,137.0,6.52,7.51,,47.59359,-54.27349
2019-02-14 02:00:00+00:00,141.0,140.0,6.4,7.62,,47.59359,-54.27349
2019-02-14 02:10:00+00:00,130.0,128.0,4.97,6.96,,47.59359,-54.27349
2019-02-14 02:20:00+00:00,134.0,143.0,7.41,8.68,,47.59359,-54.27349
2019-02-14 02:30:00+00:00,112.0,149.0,4.33,7.5,,47.59359,-54.27349
2019-02-14 02:40:00+00:00,115.0,94.0,5.89,7.94,,47.59359,-54.27349
2019-02-14 02:50:00+00:00,104.0,89.0,4.28,7.39,,47.59359,-54.27349
2019-02-14 03:00:00+00:00,122.0,130.0,4.26,6.52,,47.59359,-54.27349
2019-02-14 03:10:00+00:00,120.0,125.0,4.41,7.1,,47.59359,-54.27349
2019-02-14 03:20:00+00:00,112.0,105.0,4.85,8.35,,47.59359,-54.27349
2019-02-14 03:30:00+00:00,108.0,93.0,4.52,6.69,,47.59359,-54.27349
2019-02-14 03:40:00+00:00,110.0,128.0,4.91,7.88,,47.59359,-54.27349
2019-02-14 03:50:00+00:00,109.0,132.0,3.81,6.41,,47.59359,-54.27349
2019-02-14 04:00:00+00:00,112.0,124.0,5.03,9.14,,47.59359,-54.27349
2019-02-14 04:10:00+00:00,111.0,120.0,5.48,8.49,,47.59359,-54.27349
2019-02-14 04:20:00+00:00,102.0,121.0,4.44,6.89,,47.59359,-54.27349
2019-02-14 04:30:00+00:00,104.0,124.0,4.68,7.14,,47.59359,-54.27349
2019-02-14 04:40:00+00:00,110.0,121.0,5.3,8.89,,47.59359,-54.27349
2019-02-14 04:50:00+00:00,97.0,98.0,4.91,7.26,,47.59359,-54.27349
2019-02-14 05:00:00+00:00,111.0,118.0,6.07,9.68,,47.59359,-54.27349
2019-02-14 05:10:00+00:00,110.0,87.0,4.69,7.61,,47.59359,-54.27349
2019-02-14 05:20:00+00:00,113.0,131.0,4.88,9.09,,47.59359,-54.27349
2019-02-14 05:30:00+00:00,124.0,146.0,5.69,8.75,,47.59359,-54.27349
2019-02-14 05:40:00+00:00,112.0,135.0,5.24,8.18,,47.59359,-54.27349
2019-02-14 05:50:00+00:00,127.0,132.0,7.39,10.44,,47.59359,-54.27349
2019-02-14 06:00:00+00:00,123.0,131.0,6.73,10.47,,47.59359,-54.27349
2019-02-14 06:10:00+00:00,128.0,130.0,6.26,8.78,,47.59359,-54.27349
2019-02-14 06:20:00+00:00,131.0,129.0,8.04,9.87,,47.59359,-54.27349
2019-02-14 06:30:00+00:00,142.0,133.0,7.96,11.03,,47.59359,-54.27349
2019-02-14 06:40:00+00:00,136.0,140.0,8.95,10.42,,47.59359,-54.27349
2019-02-14 06:50:00+00:00,141.0,147.0,8.54,10.37,,47.59359,-54.27349
2019-02-14 07:00:00+00:00,130.0,131.0,7.31,10.43,,47.59359,-54.27349
2019-02-14 07:10:00+00:00,131.0,130.0,10.29,12.99,,47.59359,-54.27349
2019-02-14 07:20:00+00:00,140.0,142.0,10.81,12.6,,47.59359,-54.27349
2019-02-14 07:30:00+00:00,154.0,146.0,7.21,9.95,,47.59359,-54.27349
2019-02-14 07:40:00+00:00,137.0,137.0,7.6,9.43,,47.59359,-54.27349
2019-02-14 07:50:00+00:00,147.0,152.0,8.22,10.03,,47.59359,-54.27349
2019-02-14 08:00:00+00:00,137.0,133.0,9.85,11.9,,47.59359,-54.27349
2019-02-14 08:10:00+00:00,142.0,141.0,7.81,9.17,,47.59359,-54.27349
2019-02-14 08:20:00+00:00,154.0,146.0,5.65,6.42,,47.59359,-54.27349
2019-02-14 08:30:00+00:00,162.0,165.0,7.59,9.4,,47.59359,-54.27349
2019-02-14 08:40:00+00:00,138.0,129.0,5.43,6.79,,47.59359,-54.27349
2019-02-14 08:50:00+00:00,138.0,136.0,5.76,7.23,,47.59359,-54.27349
2019-02-14 09:00:00+00:00,143.0,133.0,6.82,9.8,,47.59359,-54.27349
2019-02-14 09:10:00+00:00,150.0,141.0,4.98,6.83,,47.59359,-54.27349
2019-02-14 09:20:00+00:00,166.0,161.0,6.59,8.96,,47.59359,-54.27349
2019-02-14 09:30:00+00:00,168.0,158.0,9.6,11.75,,47.59359,-54.27349
2019-02-14 09:40:00+00:00,164.0,163.0,11.05,13.76,,47.59359,-54.27349
2019-02-14 09:50:00+00:00,166.0,154.0,9.21,11.07,,47.59359,-54.27349
2019-02-14 10:00:00+00:00,154.0,155.0,11.59,11.74,,47.59359,-54.27349
2019-02-14 10:10:00+00:00,151.0,152.0,13.09,13.09,,47.59359,-54.27349
2019-02-14 10:30:00+00:00,163.0,149.0,10.34,10.86,,47.59359,-54.27349
2019-02-14 10:40:00+00:00,173.0,177.0,12.67,19.54,,47.59359,-54.27349
2019-02-14 10:50:00+00:00,161.0,153.0,13.92,16.6,,47.59359,-54.27349
2019-02-14 11:00:00+00:00,170.0,166.0,12.47,13.8,,47.59359,-54.27349
2019-02-14 11:10:00+00:00,171.0,170.0,10.75,12.59,,47.59359,-54.27349
2019-02-14 11:20:00+00:00,173.0,177.0,10.73,14.72,,47.59359,-54.27349
2019-02-14 12:00:00+00:00,182.0,187.0,8.98,10.15,,47.59359,-54.27349
2019-02-14 12:10:00+00:00,190.0,191.0,11.45,12.97,,47.59359,-54.27349
2019-02-14 12:20:00+00:00,212.0,217.0,9.61,11.18,,47.59359,-54.27349
2019-02-14 12:30:00+00:00,217.0,218.0,13.62,15.69,,47.59359,-54.27349
2019-02-14 12:40:00+00:00,225.0,230.0,12.67,14.81,,47.59359,-54.27349
2019-02-14 12:50:00+00:00,245.0,247.0,12.16,15.3,,47.59359,-54.27349
2019-02-14 13:00:00+00:00,243.0,241.0,10.07,12.71,,47.59359,-54.27349
2019-02-14 13:10:00+00:00,244.0,244.0,8.55,10.27,,47.59359,-54.27349
2019-02-14 13:20:00+00:00,231.0,229.0,7.93,9.31,,47.59359,-54.27349
2019-02-14 13:30:00+00:00,225.0,230.0,9.32,10.49,,47.59359,-54.27349
2019-02-14 13:40:00+00:00,229.0,226.0,8.8,9.9,,47.59359,-54.27349
2019-02-14 13:50:00+00:00,244.0,241.0,9.76,12.63,,47.59359,-54.27349
2019-02-14 14:00:00+00:00,234.0,235.0,9.51,10.35,,47.59359,-54.27349
2019-02-14 14:10:00+00:00,224.0,228.0,9.7,10.9,,47.59359,-54.27349
2019-02-14 14:20:00+00:00,226.0,230.0,10.75,13.02,,47.59359,-54.27349
2019-02-14 14:30:00+00:00,228.0,227.0,10.72,11.88,,47.59359,-54.27349
2019-02-14 14:40:00+00:00,244.0,249.0,10.95,12.8,,47.59359,-54.27349
2019-02-14 14:50:00+00:00,240.0,247.0,10.61,12.89,,47.59359,-54.27349
2019-02-14 15:00:00+00:00,240.0,243.0,11.11,13.45,,47.59359,-54.27349
2019-02-14 15:10:00+00:00,236.0,233.0,11.4,12.62,,47.59359,-54.27349
2019-02-14 15:20:00+00:00,238.0,236.0,9.93,11.06,,47.59359,-54.27349
2019-02-14 15:30:00+00:00,243.0,247.0,10.06,11.93,,47.59359,-54.27349
2019-02-14 15:40:00+00:00,247.0,253.0,11.02,13.39,,47.59359,-54.27349
2019-02-14 15:50:00+00:00,245.0,249.0,11.12,13.86,,47.59359,-54.27349
2019-02-14 16:00:00+00:00,249.0,255.0,12.1,13.86,,47.59359,-54.27349
2019-02-14 16:10:00+00:00,246.0,238.0,11.27,13.54,,47.59359,-54.27349
2019-02-14 16:20:00+00:00,258.0,264.0,13.35,16.38,,47.59359,-54.27349
2019-02-14 16:30:00+00:00,268.0,270.0,13.13,16.04,,47.59359,-54.27349
2019-02-14 16:40:00+00:00,264.0,259.0,10.82,12.81,,47.59359,-54.27349
2019-02-14 16:50:00+00:00,267.0,270.0,13.54,16.15,,47.59359,-54.27349
2019-02-14 17:00:00+00:00,266.0,270.0,15.39,18.21,,47.59359,-54.27349
2019-02-14 17:10:00+00:00,267.0,266.0,16.34,19.85,,47.59359,-54.27349
2019-02-14 17:20:00+00:00,265.0,268.0,15.57,17.89,,47.59359,-54.27349
2019-02-14 17:30:00+00:00,273.0,275.0,13.52,15.93,,47.59359,-54.27349
2019-02-14 17:40:00+00:00,268.0,267.0,14.21,16.72,,47.59359,-54.27349
2019-02-14 17:50:00+00:00,267.0,271.0,13.53,14.76,,47.59359,-54.27349
2019-02-14 18:00:00+00:00,268.0,271.0,15.65,18.1,,47.59359,-54.27349
2019-02-14 18:10:00+00:00,266.0,259.0,15.57,18.34,,47.59359,-54.27349
2019-02-14 18:20:00+00:00,267.0,263.0,15.66,17.96,,47.59359,-54.27349
2019-02-14 18:30:00+00:00,264.0,267.0,14.36,16.89,,47.59359,-54.27349
2019-02-14 18:40:00+00:00,264.0,265.0,15.48,17.96,,47.59359,-54.27349
2019-02-14 18:50:00+00:00,262.0,261.0,14.09,16.31,,47.59359,-54.27349
2019-02-14 19:00:00+00:00,261.0,259.0,13.11,16.02,,47.59359,-54.27349
2019-02-14 19:10:00+00:00,273.0,276.0,15.72,18.01,,47.59359,-54.27349
2019-02-14 19:20:00+00:00,267.0,267.0,16.44,18.68,,47.59359,-54.27349
2019-02-14 19:30:00+00:00,278.0,280.0,14.74,17.98,,47.59359,-54.27349
2019-02-14 19:40:00+00:00,269.0,275.0,13.49,16.42,,47.59359,-54.27349
2019-02-14 19:50:00+00:00,268.0,267.0,15.81,17.6,,47.59359,-54.27349
2019-02-14 20:00:00+00:00,266.0,271.0,12.61,14.36,,47.59359,-54.27349
2019-02-14 20:10:00+00:00,275.0,278.0,12.44,15.43,,47.59359,-54.27349
2019-02-14 20:20:00+00:00,268.0,263.0,11.61,14.22,,47.59359,-54.27349
2019-02-14 20:30:00+00:00,270.0,273.0,11.19,13.24,,47.59359,-54.27349
2019-02-14 20:40:00+00:00,268.0,270.0,12.02,13.43,,47.59359,-54.27349
2019-02-14 20:50:00+00:00,270.0,274.0,11.83,14.17,,47.59359,-54.27349
2019-02-14 21:00:00+00:00,262.0,261.0,10.28,11.59,,47.59359,-54.27349
2019-02-14 21:10:00+00:00,271.0,272.0,11.13,12.92,,47.59359,-54.27349
2019-02-14 21:20:00+00:00,265.0,271.0,10.49,12.58,,47.59359,-54.27349
2019-02-14 21:30:00+00:00,263.0,266.0,11.16,13.3,,47.59359,-54.27349
2019-02-14 21:40:00+00:00,261.0,267.0,11.57,13.39,,47.59359,-54.27349
2019-02-14 21:50:00+00:00,270.0,263.0,10.8,12.64,,47.59359,-54.27349
2019-02-14 22:00:00+00:00,263.0,261.0,12.59,14.53,,47.59359,-54.27349
2019-02-14 22:10:00+00:00,263.0,260.0,12.74,15.38,,47.59359,-54.27349
2019-02-14 22:20:00+00:00,261.0,256.0,12.54,14.59,,47.59359,-54.27349
2019-02-14 22:30:00+00:00,254.0,254.0,12.57,13.45,,47.59359,-54.27349
2019-02-14 22:40:00+00:00,263.0,261.0,12.96,14.99,,47.59359,-54.27349
2019-02-14 22:50:00+00:00,261.0,257.0,12.25,13.7,,47.59359,-54.27349
2019-02-14 23:00:00+00:00,258.0,250.0,10.41,12.13,,47.59359,-54.27349
2019-02-14 23:10:00+00:00,267.0,272.0,12.37,14.35,,47.59359,-54.27349
2019-02-14 23:20:00+00:00,265.0,266.0,10.8,13.11,,47.59359,-54.27349
2019-02-14 23:30:00+00:00,264.0,264.0,11.4,15.16,,47.59359,-54.27349
2019-02-14 23:40:00+00:00,263.0,263.0,10.75,12.44,,47.59359,-54.27349
2019-02-14 23:50:00+00:00,264.0,263.0,13.58,15.56,,47.59359,-54.27349
